FW6785 Weather Reports


time (UTC)temp
F
wind
direction
speed
knots
gust
knots
rain 1hr
in
rain 24hr
in
rain mn
in
humidity
%
barometer
mb
20260505214559 52 338 3.5 5.2 0.00 0.42 0.42 98 4156.7
20260505214056 53 3 2.6 4.3 0.00 0.42 0.42 98 4156.6
20260505213554 52 9 1.7 2.6 0.00 0.42 0.42 98 4156.3
20260505213049 52 3 3.5 4.3 0.00 0.42 0.42 98 4156.3
20260505212540 52 6 2.6 4.3 0.00 0.42 0.42 99 4156.5
20260505212038 52 2 4.3 5.2 0.00 0.42 0.42 99 4156.2
20260505211535 52 345 3.5 4.3 0.00 0.42 0.42 99 4156.3
20260505211031 53 314 2.6 2.6 0.00 0.42 0.42 99 4156.4
20260505210528 53 349 4.3 5.2 0.00 0.42 0.42 99 4156.1
20260505210026 53 353 3.5 6.1 0.00 0.42 0.42 99 4156.2
20260505205524 53 32 2.6 2.6 0.00 0.42 0.42 99 4156.2
20260505205020 53 6 3.5 4.3 0.00 0.42 0.42 99 4156.4
20260505204518 53 29 3.5 4.3 0.00 0.42 0.42 99 4156.6
20260505204015 54 9 1.7 1.7 0.00 0.42 0.42 99 4157.1
20260505203512 54 338 4.3 6.1 0.00 0.42 0.42 99 4156.9
20260505203009 54 28 2.6 4.3 0.00 0.42 0.42 99 4156.5
20260505202505 54 4 2.6 4.3 0.00 0.42 0.42 99 4156.2
20260505202000 54 9 1.7 1.7 0.00 0.42 0.42 99 4155.3
20260505201458 55 346 4.3 5.2 0.00 0.42 0.42 99 4155.3
20260505200955 55 34 2.6 2.6 0.00 0.42 0.42 99 4155.7
20260505200453 55 67 2.6 4.3 0.00 0.42 0.42 99 4155.9
20260505195948 55 25 0.9 0.9 0.00 0.42 0.42 99 4155.8
20260505195446 55 21 2.6 5.2 0.00 0.42 0.42 99 4155.6
20260505194943 55 8 5.2 6.1 0.05 0.42 0.42 99 4155.9
20260505194441 55 5 0.9 0.9 0.05 0.42 0.42 99 4156.2
20260505193940 55 356 2.6 4.3 0.07 0.41 0.41 99 4156.4
20260505193438 55 13 2.6 4.3 0.07 0.41 0.41 99 4156.1
20260505192936 55 19 1.7 1.7 0.00 0.40 0.40 99 4156.1
20260505192434 55 355 2.6 4.3 0.00 0.40 0.40 99 4156.1
20260505191931 56 356 4.3 5.2 0.00 0.40 0.40 99 4156.3
20260505191430 56 13 0.9 1.7 0.00 0.40 0.40 99 4156.1
20260505190926 56 297 2.6 2.6 0.00 0.40 0.40 99 4155.8
20260505190421 56 314 3.5 4.3 0.00 0.40 0.40 99 4155.6
20260505185917 57 7 1.7 1.7 0.00 0.40 0.40 99 4155.3
20260505185414 56 354 1.7 1.7 0.00 0.40 0.40 99 4155.3
20260505184910 56 16 1.7 1.7 0.00 0.40 0.40 99 4155.6
20260505184407 56 6 2.6 2.6 0.00 0.40 0.40 99 4155.7
20260505183904 57 1 2.6 4.3 0.00 0.40 0.40 99 4155.8
20260505183355 57 359 2.6 2.6 0.00 0.40 0.40 99 4155.7
20260505182852 57 6 1.7 1.7 0.00 0.40 0.40 99 4155.9
20260505182348 58 6 3.5 4.3 0.00 0.40 0.40 98 4155.4
20260505181845 58 7 6.1 7.8 0.00 0.40 0.40 98 4155.8
20260505181342 58 346 5.2 6.1 0.05 0.40 0.40 98 4155.5
20260505180839 59 42 3.5 4.3 0.05 0.40 0.40 98 4155.5
20260505180335 59 12 2.6 2.6 0.00 0.39 0.39 97 4155.2
20260505175832 59 325 7.0 8.7 0.00 0.39 0.39 97 4155.3
20260505175328 60 4 3.5 5.2 0.00 0.39 0.39 96 4155.3
20260505174825 60 333 4.3 4.3 0.00 0.39 0.39 96 4155.3
20260505174323 62 354 2.6 2.6 0.07 0.39 0.39 95 4155.2
20260505173818 62 24 0.9 0.9 0.07 0.39 0.39 94 4155.0
20260505173315 62 13 2.6 2.6 0.00 0.38 0.38 94 4155.3
20260505172813 62 351 1.7 2.6 0.00 0.38 0.38 94 4155.7
20260505172310 63 357 2.6 2.6 0.00 0.38 0.38 95 4155.5
20260505171804 63 15 0.9 0.9 0.00 0.38 0.38 95 4155.1
20260505171301 63 327 2.6 4.3 0.00 0.38 0.38 95 4155.1
20260505170758 63 4 1.7 1.7 0.00 0.38 0.38 95 4155.0
20260505170255 63 10 2.6 4.3 0.00 0.38 0.38 94 4154.8
20260505165750 64 21 2.6 4.3 0.00 0.38 0.38 94 4155.0
20260505165246 65 26 0.9 0.9 0.00 0.38 0.38 94 4154.9
20260505164742 65 24 0.9 0.9 0.00 0.38 0.38 94 4155.2
20260505164239 65 23 0.9 0.9 0.00 0.38 0.38 94 4155.1
20260505163737 65 20 0.9 0.9 0.00 0.38 0.38 95 4155.0
20260505163235 64 17 0.9 0.9 0.00 0.38 0.38 95 4154.9
20260505162732 64 99 0.0 0.0 0.00 0.38 0.38 96 4155.0
20260505162229 64 66 0.9 0.9 0.00 0.38 0.38 97 4155.1
20260505161726 64 334 0.9 0.9 0.00 0.38 0.38 98 4155.2
20260505161224 64 40 0.0 0.9 0.00 0.38 0.38 98 4155.0
20260505160721 63 35 0.0 0.9 0.00 0.38 0.38 99 4155.3
20260505160219 63 36 0.0 0.9 0.00 0.38 0.38 99 4155.0
20260505153158 63 119 0.9 1.7 0.00 0.38 0.38 99 4154.3
20260505152654 63 33 0.0 0.0 0.00 0.38 0.38 99 4154.2
20260505152150 63 1 2.6 2.6 0.00 0.38 0.38 99 4154.5
20260505151646 63 32 0.0 0.9 0.00 0.38 0.38 99 4154.4
20260505151143 63 71 0.9 0.9 0.00 0.38 0.38 99 4154.5
20260505150639 62 53 0.0 0.0 0.00 0.38 0.38 99 4154.6
20260505150136 62 356 1.7 1.7 0.00 0.38 0.38 99 4154.7
20260505140605 62 118 0.0 0.9 0.00 0.38 0.38 99 4155.1
20260505125018 61 84 0.0 0.0 0.00 0.38 0.38 99 4154.7
20260505124515 61 92 0.0 0.0 0.00 0.38 0.38 99 4154.7
20260505124011 60 119 0.0 0.0 0.00 0.38 0.38 99 4154.5
20260505123508 60 119 0.0 0.0 0.00 0.38 0.38 99 4154.5
20260505123004 60 77 0.0 0.0 0.00 0.38 0.38 99 4154.3
20260505122502 60 28 0.0 0.0 0.00 0.38 0.38 99 4154.4
20260505121958 60 12 0.0 0.0 0.00 0.38 0.38 99 4154.6
20260505121455 60 7 0.9 0.9 0.00 0.38 0.38 99 4154.4
20260505120951 60 346 1.7 1.7 0.00 0.38 0.38 99 4154.4
20260505120448 60 334 0.9 0.9 0.00 0.38 0.38 99 4154.4
20260505115947 60 20 0.9 0.9 0.00 0.38 0.38 99 4154.0
20260505115443 60 2 1.7 1.7 0.00 0.38 0.38 99 4154.4
20260505114941 60 1 1.7 1.7 0.00 0.38 0.38 99 4154.5
20260505114437 60 325 2.6 2.6 0.00 0.38 0.38 99 4154.3
20260505113934 60 341 2.6 2.6 0.00 0.38 0.38 99 4153.9
20260505113430 60 359 2.6 2.6 0.00 0.38 0.38 99 4153.8
20260505112926 60 336 0.9 0.9 0.00 0.38 0.38 99 4153.4
20260505112424 60 355 0.0 0.0 0.00 0.38 0.38 99 4153.1
20260505111920 60 336 1.7 1.7 0.00 0.38 0.38 99 4153.4
20260505111415 60 307 0.9 0.9 0.00 0.38 0.38 99 4153.0
20260505110911 61 39 0.0 0.0 0.00 0.38 0.38 99 4152.8
20260505110408 61 75 0.0 0.0 0.00 0.38 0.38 99 4152.9
20260505101839 61 192 0.9 0.9 0.07 0.38 0.38 99 4153.9
20260505101334 61 166 0.0 0.0 0.00 0.37 0.37 99 4154.0
20260505100830 61 20 0.0 0.0 0.00 0.37 0.37 99 4153.6
20260505100327 61 174 0.9 0.9 0.00 0.37 0.37 99 4153.7
20260505095822 61 156 0.9 1.7 0.00 0.37 0.37 99 4153.3
20260505095320 61 197 0.0 0.0 0.00 0.37 0.37 99 4153.9
20260505094816 61 158 0.9 0.9 0.00 0.37 0.37 99 4153.4
20260505094313 61 152 1.7 1.7 0.05 0.37 0.37 99 4154.1
20260505093808 61 313 0.9 0.9 0.12 0.37 0.37 99 4154.2
20260505093307 61 201 0.9 1.7 0.07 0.36 0.36 99 4154.3
20260505092803 61 126 0.9 0.9 0.05 0.35 0.35 99 4153.8
20260505092304 61 160 0.0 0.9 0.05 0.35 0.35 99 4154.9
20260505091758 61 181 0.0 0.0 0.07 0.34 0.34 99 4155.0
20260505091256 61 235 0.0 0.9 0.31 0.34 0.34 99 4154.6
20260505090754 61 158 0.0 0.0 0.28 0.33 0.33 99 4154.3
20260505090252 61 112 0.9 0.9 0.19 0.30 0.30 98 4154.7
20260505085749 62 159 0.9 0.9 0.19 0.28 0.28 98 4154.9
20260505085247 61 163 0.9 0.9 0.31 0.27 0.27 98 4154.9
20260505084744 61 289 1.7 1.7 0.31 0.25 0.25 98 4154.4
20260505084244 61 283 0.0 0.0 0.24 0.23 0.23 97 4154.6
20260505083740 61 304 0.0 0.9 0.24 0.20 0.20 97 4154.6
20260505083236 61 317 0.9 0.9 0.35 0.18 0.18 97 4154.3
20260505082732 61 325 0.9 0.9 0.42 0.16 0.16 96 4154.4
20260505082230 62 333 2.6 2.6 0.35 0.13 0.13 96 4154.4
20260505081726 61 342 0.9 1.7 0.24 0.09 0.09 95 4154.6
20260505081223 62 298 1.7 1.7 0.24 0.07 0.07 95 4154.7
20260505080720 62 167 0.0 0.0 0.17 0.05 0.05 94 4154.5
20260505080216 62 328 0.9 0.9 0.12 0.03 0.03 92 4154.1
20260505075712 62 308 0.0 0.9 0.14 0.02 0.02 91 4154.5
20260505075209 63 311 0.9 0.9 0.07 0.01 0.01 88 4154.6
20260505074706 63 293 0.9 0.9 0.00 0.00 0.00 87 4154.4
20260505074203 63 231 0.0 0.0 0.00 0.00 0.00 85 4154.0
20260505073701 64 200 0.0 0.9 0.00 0.00 0.00 83 4154.1
20260505073158 64 196 0.0 0.9 0.00 0.00 0.00 81 4154.0
20260505072654 64 204 0.9 0.9 0.00 0.00 0.00 81 4154.3
20260505072151 64 200 0.0 0.0 0.00 0.00 0.00 80 4153.8
20260505071646 64 200 0.0 0.0 0.00 0.00 0.00 80 4154.1
20260505071144 64 203 0.0 0.9 0.00 0.00 0.00 80 4154.1
20260505070641 64 212 0.0 0.0 0.00 0.00 0.00 80 4154.0
20260505070137 64 125 0.0 0.0 0.00 0.00 0.00 80 4154.1
20260505065633 64 132 0.0 0.0 0.00 0.00 0.00 80 4154.0
20260505065130 64 132 0.0 0.0 0.00 0.00 0.00 80 4154.0
20260505064627 64 132 0.0 0.0 0.00 0.00 0.00 80 4154.1
20260505064125 64 134 0.0 0.9 0.00 0.00 0.00 80 4154.3
20260505063623 64 137 0.0 0.0 0.00 0.00 0.00 80 4154.4
20260505063118 64 137 0.0 0.0 0.00 0.00 0.00 80 4154.4
20260505062615 64 137 0.0 0.0 0.00 0.00 0.00 79 4154.5
20260505062113 64 136 0.0 0.0 0.00 0.00 0.00 79 4154.6
20260505061610 65 137 0.0 0.0 0.00 0.00 0.00 78 4154.9
20260505061108 65 136 0.0 0.0 0.00 0.00 0.00 78 4154.9
20260505060605 65 136 0.0 0.0 0.00 0.00 0.00 78 4154.8
20260505055557 64 137 0.0 0.0 0.00 0.00 0.00 79 4154.7
20260505055053 64 114 0.0 0.0 0.00 0.00 0.00 81 4154.7
20260505054551 63 113 0.0 0.0 0.00 0.00 0.00 82 4154.7
20260505054049 63 113 0.0 0.0 0.00 0.00 0.00 83 4154.8
20260505053545 63 113 0.0 0.0 0.00 0.00 0.00 83 4154.4
20260505053042 63 114 0.0 0.0 0.00 0.00 0.00 82 4154.9
20260505052539 63 114 0.0 0.0 0.00 0.00 0.00 82 4154.7
20260505052037 63 113 0.0 0.0 0.00 0.00 0.00 82 4154.7
20260505051533 64 112 0.0 0.0 0.00 0.00 0.00 81 4154.9
20260505051032 64 112 0.0 0.0 0.00 0.00 0.00 80 4154.6
20260505050529 64 112 0.0 0.0 0.00 0.00 0.00 80 4155.2
20260505041457 66 158 0.0 0.0 0.00 0.00 0.00 74 4155.4
20260505040954 67 157 0.0 0.0 0.00 0.00 0.00 73 4155.3
20260505040452 67 157 0.0 0.0 0.00 0.00 0.00 73 4155.3
20260505035949 67 158 0.0 0.0 0.00 0.00 0.00 72 4155.4
20260505035444 67 169 0.0 0.0 0.00 0.00 0.00 72 4155.3
20260505034942 67 156 0.9 0.9 0.00 0.00 0.00 72 4155.7
20260505034438 68 156 0.9 0.9 0.00 0.00 0.00 71 4155.5
20260505033936 68 155 0.0 0.9 0.00 0.00 0.00 71 4155.4
20260505033432 68 157 0.9 0.9 0.00 0.00 0.00 71 4155.7
20260505032930 68 159 0.9 0.9 0.00 0.00 0.00 70 4155.8
20260505032427 68 155 0.9 0.9 0.00 0.00 0.00 70 4155.7
20260505031924 68 155 0.9 0.9 0.00 0.00 0.00 70 4155.7
20260505031421 68 158 0.9 0.9 0.00 0.00 0.00 70 4155.7
20260505030918 68 156 0.0 0.9 0.00 0.00 0.00 70 4155.8
20260505030414 68 160 0.0 0.0 0.00 0.00 0.00 70 4155.9
20260505025909 69 160 0.0 0.0 0.00 0.00 0.00 70 4155.8
20260505025407 69 157 0.9 0.9 0.00 0.00 0.00 69 4155.5
20260505024906 69 159 0.9 0.9 0.00 0.00 0.00 69 4155.7
20260505024403 69 150 0.0 0.9 0.00 0.00 0.00 69 4155.4
20260505023859 69 151 0.0 0.9 0.00 0.00 0.00 68 4155.4
20260505023356 69 151 0.0 0.9 0.00 0.00 0.00 67 4155.4
20260505022853 69 163 0.0 0.0 0.00 0.00 0.00 68 4155.3
20260505022350 70 164 0.0 0.9 0.00 0.00 0.00 68 4155.1
20260505021848 70 163 0.0 0.0 0.00 0.00 0.00 67 4155.1
20260505021344 70 163 0.9 0.9 0.00 0.00 0.00 67 4155.0
20260505020840 70 161 0.9 0.9 0.00 0.00 0.00 66 4154.8
20260505020336 71 160 0.9 0.9 0.00 0.00 0.00 66 4154.7
20260505015833 71 163 0.0 0.9 0.00 0.00 0.00 66 4154.7
20260505015330 71 154 0.9 0.9 0.00 0.00 0.00 65 4154.7
20260505014827 72 147 0.9 0.9 0.00 0.00 0.00 64 4154.7
20260505014324 72 147 0.9 0.9 0.00 0.00 0.00 63 4154.7
20260505013821 72 144 0.9 0.9 0.00 0.00 0.00 63 4154.5
20260505013318 72 144 0.0 0.9 0.00 0.00 0.00 63 4154.4
20260505012816 73 144 0.0 0.9 0.00 0.00 0.00 62 4154.1
20260505012314 73 144 0.0 0.0 0.00 0.00 0.00 61 4154.1
20260505011809 73 144 0.0 0.0 0.00 0.00 0.00 61 4154.2
20260505011307 73 142 0.0 0.9 0.00 0.00 0.00 60 4154.1
20260505010802 74 139 0.0 0.9 0.00 0.00 0.00 59 4153.9
20260505010259 74 172 0.0 0.9 0.00 0.00 0.00 58 4153.8
20260505005755 75 157 0.0 0.9 0.00 0.00 0.00 58 4153.6
20260505005252 75 158 0.9 0.9 0.00 0.00 0.00 57 4153.6
20260505004749 75 161 0.9 0.9 0.00 0.00 0.00 57 4153.9
20260505004245 75 159 0.9 0.9 0.00 0.00 0.00 56 4153.7
20260505003743 76 152 0.9 0.9 0.00 0.00 0.00 56 4153.5
20260505003241 76 162 0.9 0.9 0.00 0.00 0.00 55 4153.5
20260505002736 76 148 0.0 0.0 0.00 0.00 0.00 55 4153.4
20260505002234 77 173 0.9 0.9 0.00 0.00 0.00 54 4153.6
20260505001731 77 174 0.0 0.0 0.00 0.00 0.00 54 4153.5
20260505001229 77 152 0.0 0.0 0.00 0.00 0.00 53 4153.7
20260505000725 77 98 0.9 0.9 0.00 0.00 0.00 52 4153.4
20260505000226 77 179 0.9 0.9 0.00 0.00 0.00 52 4153.4
20260504235720 78 160 0.9 0.9 0.00 0.00 0.00 52 4153.5
20260504235216 78 168 1.7 2.6 0.00 0.00 0.00 51 4153.3
20260504234713 78 143 2.6 2.6 0.00 0.00 0.00 51 4153.1
20260504234210 78 175 0.0 0.0 0.00 0.00 0.00 51 4153.5
20260504233706 78 191 1.7 1.7 0.00 0.00 0.00 51 4153.6
20260504233203 78 163 1.7 1.7 0.00 0.00 0.00 51 4153.4
20260504232700 79 183 0.9 0.9 0.00 0.00 0.00 51 4153.8
20260504232157 79 174 0.9 0.9 0.00 0.00 0.00 50 4153.8
20260504231653 79 186 3.5 6.1 0.00 0.00 0.00 49 4153.5
20260504231150 79 193 2.6 2.6 0.00 0.00 0.00 48 4153.7
20260504230646 79 222 4.3 6.1 0.00 0.00 0.00 48 4153.7
20260504230145 79 245 2.6 2.6 0.00 0.00 0.00 48 4154.0
20260504225643 80 210 2.6 4.3 0.00 0.00 0.00 47 4153.9
20260504225138 80 177 2.6 2.6 0.00 0.00 0.00 47 4153.6
20260504224636 80 202 3.5 5.2 0.00 0.00 0.00 47 4153.8
20260504224132 80 199 0.9 0.9 0.00 0.00 0.00 47 4153.8
20260504223630 80 178 0.9 0.9 0.00 0.00 0.00 46 4153.6
20260504223125 80 208 1.7 2.6 0.00 0.00 0.00 46 4153.8
20260504222622 80 198 3.5 4.3 0.00 0.00 0.00 45 4153.9
20260504222120 81 192 0.9 1.7 0.00 0.00 0.00 45 4153.9
20260504221616 82 195 4.3 6.1 0.00 0.00 0.00 43 4153.9
20260504221114 82 200 0.9 0.9 0.00 0.00 0.00 44 4154.0
20260504220610 81 196 4.3 6.1 0.00 0.00 0.00 44 4154.1
20260504220108 82 193 7.8 9.6 0.00 0.00 0.00 43 4153.9
20260504215604 81 173 0.9 1.7 0.00 0.00 0.00 44 4154.0
20260504215102 82 145 7.8 8.7 0.00 0.00 0.00 44 4154.0